Location: Bad Salzschlirf
(50.3750°N, 9.3000°E)
Time: 21:55:32
(UTC+01:00)

ISS - Pass Details

Date: 09 November 2019
Orbit: 412 x 421 km, 51.6° (Epoch: 15 November)

Event Time Altitude Azimuth Distance (km) Brightness Sun altitude
Exits shadow 04:13:52 13° 97° (E) 1,340 -0.5 -30.7°
Drops below altitude 10° 04:14:20 10° 97° (E) 1,523 -0.1 -30.6°
Sets 04:16:23 0° 99° (E) 2,367 1.1 -30.3°
